TimeCDT,TemperatureF,Dew PointF,Humidity,Sea Level PressureIn,VisibilityMPH,Wind Direction,Wind SpeedMPH,Gust SpeedMPH,PrecipitationIn,Events,Conditions,WindDirDegrees,DateUTC
12:52 AM,84.0,73.0,69,29.94,10.0,SSW,8.1,-,N/A,,Clear,210,2013-07-19 05:52:00
1:52 AM,84.0,72.0,67,29.93,10.0,SW,8.1,-,N/A,,Clear,220,2013-07-19 06:52:00
2:52 AM,82.9,71.1,67,29.91,10.0,SW,9.2,-,N/A,,Clear,220,2013-07-19 07:52:00
3:52 AM,82.9,71.1,67,29.89,10.0,SW,8.1,-,N/A,,Clear,230,2013-07-19 08:52:00
4:52 AM,82.0,70.0,67,29.88,10.0,SW,9.2,-,N/A,,Clear,230,2013-07-19 09:52:00
5:52 AM,82.0,70.0,67,29.88,10.0,SW,9.2,-,N/A,,Clear,230,2013-07-19 10:52:00
6:52 AM,82.9,70.0,65,29.88,10.0,SW,8.1,-,N/A,,Clear,220,2013-07-19 11:52:00
7:52 AM,84.0,71.1,65,29.89,10.0,WSW,11.5,18.4,N/A,,Clear,240,2013-07-19 12:52:00
8:52 AM,87.1,70.0,57,29.89,10.0,SW,15.0,19.6,N/A,,Clear,230,2013-07-19 13:52:00
9:52 AM,91.0,69.1,48,29.88,10.0,WSW,10.4,24.2,N/A,,Clear,240,2013-07-19 14:52:00
10:52 AM,93.0,69.1,45,29.86,10.0,WSW,16.1,21.9,N/A,,Clear,240,2013-07-19 15:52:00
11:52 AM,95.0,69.1,43,29.84,10.0,WSW,17.3,23.0,N/A,,Clear,250,2013-07-19 16:52:00
12:52 PM,95.0,66.0,38,29.82,10.0,WSW,12.7,27.6,N/A,,Clear,250,2013-07-19 17:52:00
1:52 PM,97.0,66.9,37,29.81,10.0,WSW,18.4,27.6,N/A,,Clear,240,2013-07-19 18:52:00
2:52 PM,96.1,64.0,35,29.79,10.0,WSW,20.7,38.0,N/A,,Clear,250,2013-07-19 19:52:00
3:52 PM,96.1,64.9,36,29.77,10.0,SW,18.4,29.9,N/A,,Clear,230,2013-07-19 20:52:00
4:52 PM,93.9,66.0,40,29.77,10.0,WSW,17.3,28.8,N/A,,Clear,250,2013-07-19 21:52:00
5:52 PM,93.9,68.0,43,29.76,10.0,WSW,18.4,29.9,N/A,,Clear,250,2013-07-19 22:52:00
6:52 PM,93.0,68.0,44,29.76,10.0,WSW,13.8,21.9,N/A,,Clear,240,2013-07-19 23:52:00
7:52 PM,91.0,69.1,48,29.75,10.0,WSW,13.8,21.9,N/A,Thunderstorm,Clear,240,2013-07-20 00:52:00
8:48 PM,82.4,73.4,74,29.79,10.0,NNW,12.7,-,0.00,Rain-Thunderstorm,Light Thunderstorms and Rain,330,2013-07-20 01:48:00
8:52 PM,82.0,73.0,74,29.77,9.0,NNW,9.2,-,0.00,Rain-Thunderstorm,Light Rain,330,2013-07-20 01:52:00
9:28 PM,75.2,69.8,83,29.84,1.8,West,25.3,39.1,0.22,Rain-Thunderstorm,Heavy Thunderstorms and Rain,260,2013-07-20 02:28:00
9:46 PM,73.4,66.2,78,29.85,3.0,SSW,13.8,34.5,0.44,Rain-Thunderstorm,Light Thunderstorms and Rain,200,2013-07-20 02:46:00
9:52 PM,73.9,66.0,76,29.82,9.0,South,16.1,24.2,0.45,Rain-Thunderstorm,Light Thunderstorms and Rain,190,2013-07-20 02:52:00
9:59 PM,73.4,66.2,78,29.83,10.0,South,10.4,-,0.00,Rain-Thunderstorm,Light Rain,190,2013-07-20 02:59:00
10:22 PM,73.4,68.0,83,29.83,10.0,Calm,Calm,-,0.00,,Partly Cloudy,0,2013-07-20 03:22:00
10:42 PM,75.2,69.8,83,29.83,10.0,WSW,4.6,-,0.00,Thunderstorm,Scattered Clouds,240,2013-07-20 03:42:00
10:52 PM,75.0,69.1,82,29.82,10.0,SW,5.8,-,0.00,Thunderstorm,Mostly Cloudy,220,2013-07-20 03:52:00
11:20 PM,75.2,69.8,83,29.83,10.0,Variable,3.5,-,0.03,,Mostly Cloudy,0,2013-07-20 04:20:00
11:52 PM,75.0,70.0,84,29.81,10.0,WNW,3.5,-,0.03,,Scattered Clouds,290,2013-07-20 04:52:00